Find Starlink 31500

NORAD ID: 59305 Int'l Des: 2024-056 Owner: SPXS Country: US Constellation: starlink operational
LEOCIRCULAR

Current View

Loading 3D Globe...

About Starlink 31500

Starlink 31500 (NORAD 59305) is a starlink constellation satellite (v2 mini) launched Mar 24, 2024 by SPXS of US. It operates in LEO, CIRCULAR orbit with a mass of 730.00 kg.

Upcoming Passes

Passes for default location (London). Set your location on the main map for personalized predictions.

Altitude History

Loading altitude history...

Two-Line Element Set

1 59305U 24056K 26264.26067034 -.00000079 00000-0 66678-5 0 9992
2 59305 43.0039 206.2866 0001061 281.8911 78.1822 15.27576242141062
Epoch: Sep 21, 2026 • Age: 11 hours

Current Status

Altitude 495.5 km
Apogee / Perigee N/A
Velocity 7.62 km/s
Sub-Earth Point -42.61°S, 150.23°W
Launch Date Mar 24, 2024
Age 2.4 years
Type internet

Technical Details

Classification Payload
Mass 730.00 kg
Dry Mass 700.00 kg
Length 0.30 m
Span 29.00 m
Shape ? Box + pan
Manufacturer SPXS
Bus Type Starlink V2M
Phase Status In Orbit
Owner/State SPXS/US

Most Searched